Regional Weather Roundup
Issued by NWS

Home | Current Version | Previous Version | Graphics & Text | Print | Product List | Glossary On
Versions: 1 2 3 4 5 6 7 8 9 10 11 12 13 14 15 16 17 18 19 20 21 22 23 24 25 26 27 28
000
ASUS45 KBOU 230906
RWRCO

WEATHER ROUNDUP FOR COLORADO
NATIONAL WEATHER SERVICE DENVER/BOULDER CO
300 AM MDT WED APR 23 2014

NOTE: "FAIR" INDICATES FEW OR NO CLOUDS BELOW 12000 FEET WITH NO
SIGNIFICANT WEATHER AND/OR OBSTRUCTIONS TO VISIBILITY.

COZ001>005-013-030-031-231000-
...NORTHWEST COLORADO...

CITY           SKY/WX    TMP DP  RH WIND       PRES   REMARKS
CRAIG          LGT RAIN  49  38  65 W10       29.72R
HAYDEN         CLOUDY    45  37  76 W20G30    29.75R
MEEKER         CLOUDY    51  31  46 W7        29.73S
MOUNT WERNER   CLOUDY    37  28  70 W16       29.85F
STEAMBOAT SPGS CLOUDY    50  32  50 W15G21    29.72S
WALDEN         PTCLDY    36  30  80 S7        29.72F
$$

COZ006>008-011-231000-
...WEST CENTRAL VALLEYS...

CITY           SKY/WX    TMP DP  RH WIND       PRES   REMARKS
GRAND JUNCTION CLOUDY    62  23  22 W22       29.65R
MONTROSE       CLOUDY    63  26  24 SW20G28   29.74S
EAGLE          MOCLDY    59  25  27 SW20      29.71F
RIFLE          CLOUDY    65  23  20 SW22G30   29.64F
DELTA          NOT AVBL
NUCLA          NOT AVBL
$$

COZ017>023-064>068-231000-
...SOUTHWEST COLORADO...

CITY           SKY/WX    TMP DP  RH WIND       PRES   REMARKS
DURANGO        CLOUDY    53  22  29 CALM      29.86F
CORTEZ         CLEAR     57  28  33 SW13      29.81F
PAGOSA SPRINGS CLOUDY    55  19  24 SW8       29.90S
TELLURIDE      CLOUDY    48  21  34 SW17G28   29.91F
WOLF CREEK PAS CLOUDY    32  19  59 SW25G37   30.04F WCI  19
$$

COZ009-010-012-014-032>034-037-058>063-231000-
...CENTRAL COLORADO...

CITY           SKY/WX    TMP DP  RH WIND       PRES   REMARKS
ASPEN          MOCLDY    54  20  26 S8        29.76F
BUENA VISTA    MOCLDY    50  28  43 S13G23    29.79F
COPPER MTN     MOCLDY    37  19  48 S26G39    29.96F
BERTHOUD PASS  FAIR      30  21  69 MISG      29.95F
COTTONWOOD PAS MOCLDY    46  21  36 W10       29.88F
GUNNISON       CLOUDY    43  30  61 N7        29.85F
KREMMLING      PTCLDY    55  18  22 SW25G33   29.71S
LEADVILLE      MOCLDY    39  23  52 S13       29.85F
MONARCH PASS   MOCLDY    32  23  69 SW38G51   30.05F WCI  16
SALIDA         MOCLDY    55  27  33 S15G29    29.87F
SUNLIGHT       CLOUDY    39  28  65 S3        29.87S
WILKERSON PASS PTCLDY    36  23  60 S10G30    29.93F
$$

COZ069>075-231000-
...SAN LUIS VALLEY/SANGRE DE CRISTO MOUNTAINS...

CITY           SKY/WX    TMP DP  RH WIND       PRES   REMARKS
ALAMOSA        MOCLDY    50  29  44 NW10G21   29.86F
LA VETA PASS   CLOUDY    41  27  56 SW20G44   29.91F
SAGUACHE       MOCLDY    48  28  46 S8        29.85F
$$

COZ035-036-038>040-231000-
...NORTHERN COLORADO FRONT RANGE...

CITY           SKY/WX    TMP DP  RH WIND       PRES   REMARKS
DENVER INTL AP MOCLDY    58  33  39 S20       29.61F
DMNS CITY PARK   N/A     59  31  34 S6        29.60F
AURORA         MOCLDY    59  32  36 S15       29.63F
FRONT RANGE AP NOT AVBL
ERIE MUNI ARPT PTCLDY    52  36  53 S7        29.58F
BOULDER MUN AP PTCLDY    55  32  41 SW9       29.58F
CENTENNIAL     MOCLDY    58  31  35 SE15      29.65F
BROOMFIELD     PTCLDY    57  32  38 SW9       29.62F
FORT COLLINS   PTCLDY    48  41  76 CALM      29.59F
LONGMONT       NOT AVBL
$$

COZ041-046-047-076>085-087-088-231000-
...PIKES PEAK/PALMER DIVIDE AND SOUTHERN FOOTHILLS...

CITY           SKY/WX    TMP DP  RH WIND       PRES   REMARKS
COLO. SPRINGS  MOCLDY    56  32  40 S7        29.73S
A. F. ACADEMY  PTCLDY    51  33  50 E8        29.72F
ELLICOTT       NOT AVBL
FALCON         MOCLDY    52  31  44 S8        29.76S
FORT CARSON    MOCLDY    55  32  40 S13       29.70F
LIMON          CLOUDY    56  38  50 S16       29.66F
MONUMENT HILL  MOCLDY    46  32  57 S9        29.74S
TRINIDAD       PTCLDY    59  39  47 S18       29.78F
$$

COZ042>045-048>051-090-091-231000-
...NORTHEAST COLORADO...

CITY           SKY/WX    TMP DP  RH WIND       PRES   REMARKS
GREELEY ARPT   MOCLDY    46  36  66 CALM      29.58F
AKRON          CLOUDY    56  41  57 SE14      29.58F
BURLINGTON     MOCLDY    57  41  55 S21       29.65F
WRAY           MOCLDY    60  44  55 S22G29    29.59F
STERLING       NOT AVBL
HOLYOKE        NOT AVBL
FORT MORGAN    NOT AVBL
$$

COZ086-089-092>099-231000-
...SOUTHEAST COLORADO...

CITY           SKY/WX    TMP DP  RH WIND       PRES   REMARKS
PUEBLO         CLOUDY    63  37  38 SW14      29.66F
LA JUNTA       CLOUDY    68  40  35 S21G33    29.66F
LAMAR          CLOUDY    64  42  44 S23G32    29.66F
SPRINGFIELD      N/A     57  38  48 S16       29.79S
$$



USA.gov is the U.S. government's official web portal to all federal, state and local government web resources and services.